Location: Brent
(51.5500°N, 0.2667°W)
Time: 01:20:58
(UTC+00:00)

Daily predictions for brighter satellites

Satellite Brightness Start Highest point End
(mag) Time Altitude Azimuth Time Altitude Azimuth Time Altitude Azimuth
Cosmos 2297 Rocket 3.3 04:10:09 37° NE 04:10:09 37° NE 04:13:29 10° NNE
Cosmos 2227 Rocket 3.2 04:13:54 41° NE 04:13:54 41° NE 04:17:33 10° NNE
ATLAS CENTAUR R/B 4.2 04:21:19 13° NNE 04:21:19 13° NNE 04:22:14 10° NE
CZ-2C R/B 4.5 04:17:45 10° NNE 04:18:55 17° NNE 04:18:55 17° NNE
Cosmos 2219 4.5 04:27:50 30° NNE 04:27:50 30° NNE 04:30:45 10° NNE
CZ-4C R/B 2.7 04:27:04 78° WSW 04:27:13 78° SW 04:35:19 10° SE
Cosmos 407 Rocket 4.3 04:29:54 44° SSE 04:29:54 44° SSE 04:33:29 10° SSE
Cosmos 1943 4.1 04:29:38 37° NNE 04:30:57 43° NE 04:36:17 10° ESE
Cosmos 1140 Rocket 3.9 04:32:38 61° E 04:32:38 61° E 04:37:16 10° SE
Cosmos 1464 Rocket 4.0 04:27:39 10° S 04:33:50 77° E 04:40:00 10° NNE
USA 234 3.4 04:28:54 10° ENE 04:35:26 68° SE 04:36:56 53° SSW
SL-16 R/B 3.7 04:47:08 24° S 04:47:08 24° S 04:49:28 10° S
Okean 1-7 4.5 04:43:15 26° NNE 04:45:02 36° ENE 04:49:07 10° SE
Cosmos 1933 Rocket 4.3 04:45:09 10° S 04:49:19 50° E 04:53:32 10° NNE
Cosmos 1603 3.9 04:48:58 50° N 04:50:25 70° ENE 04:56:08 10° SE
Cosmos 1072 Rocket 4.3 04:52:21 53° SSW 04:53:50 75° WNW 05:00:01 10° N
NOSS 2-1 (E) 4.2 04:55:12 68° NW 04:56:01 89° NE 05:03:17 10° SE
Cosmos 1461 3.6 04:57:21 49° SE 04:57:21 49° SE 05:00:35 10° SE
Cosmos 2082 3.5 04:57:19 75° W 04:57:33 77° WNW 05:03:13 10° NNE
Meteor 1-27 Rocket 3.8 04:58:46 60° SW 04:58:46 60° SW 05:04:03 10° S
ATLAS 5 CENTAUR R/B 2.1 05:01:11 52° N 05:01:11 52° N 05:05:18 10° NE
Nadezhda 4 Rocket 3.8 04:59:09 20° NNW 05:03:41 77° W 05:09:49 10° S
STARLINK 1054 4.5 05:07:19 38° ESE 05:07:19 38° ESE 05:09:34 10° ESE
Cosmos 1513 Rocket 4.4 05:00:05 10° SSW 05:06:29 68° WNW 05:12:53 10° N
ALOS 3.5 05:02:09 10° NNE 05:06:38 43° E 05:11:04 10° S
STARLINK 1062 4.3 05:09:54 40° ESE 05:09:54 40° ESE 05:12:15 10° ESE
Cosmos 2084 Rocket 4.0 05:11:26 48° S 05:11:26 48° S 05:14:58 10° SSE
STARLINK 1053 4.2 05:12:54 43° SE 05:12:54 43° SE 05:15:21 10° ESE
COSMO-SKYMED 1 2.4 05:08:57 10° SSE 05:13:08 77° SW 05:13:08 77° SW
Cosmos 1624 Rocket 4.1 05:08:15 10° SSW 05:13:35 79° ESE 05:18:57 10° NNE
STARLINK 1061 4.0 05:15:20 46° SE 05:15:20 46° SE 05:17:54 10° ESE
Okean O Rocket 3.2 05:11:11 10° NNE 05:15:15 36° E 05:19:18 10° SSE
STARLINK 1067 3.9 05:18:06 49° SE 05:18:06 49° SE 05:20:46 10° ESE
Cosmos 1607 3.9 05:17:03 49° W 05:18:20 59° NW 05:24:28 10° NE
Cosmos 2056 Rocket 3.4 05:13:39 10° SSW 05:18:45 83° ESE 05:23:55 10° NNE
Cosmos 1190 Rocket 4.4 05:19:26 44° SW 05:19:26 44° SW 05:23:44 10° S
STARLINK 1058 3.8 05:20:46 52° SE 05:20:46 52° SE 05:23:33 10° ESE
Cosmos 676 Rocket 3.9 05:18:53 51° NW 05:20:09 71° WSW 05:25:24 10° SSE
Cosmos 2242 Rocket 4.0 05:21:38 47° SW 05:21:38 47° SW 05:25:08 10° S
Cosmos 1470 Rocket 4.1 05:22:34 44° NNW 05:22:34 44° NNW 05:25:52 10° N
Meteor 1-18 Rocket 4.4 05:16:45 10° N 05:22:18 68° ENE 05:27:50 10° SSE
STARLINK 1027 4.3 05:23:41 32° SE 05:23:41 32° SE 05:25:29 10° SE
USA 116 4.1 05:18:14 10° SSE 05:22:38 84° ENE 05:26:11 19° NNW
STARLINK 1028 4.3 05:23:55 32° SE 05:23:55 32° SE 05:25:42 10° SE
STARLINK 1043 3.6 05:23:30 55° SSE 05:23:30 55° SSE 05:26:23 10° ESE
STARLINK 1021 4.3 05:24:08 32° SE 05:24:08 32° SE 05:25:56 10° SE
STARLINK 1034 4.3 05:24:18 33° SE 05:24:18 33° SE 05:26:09 10° SE
STARLINK 1019 4.3 05:24:18 33° SE 05:24:18 33° SE 05:26:10 10° SE
STARLINK 1012 4.3 05:24:33 32° SE 05:24:33 32° SE 05:26:22 10° SE
STARLINK 1010 4.3 05:24:45 32° SE 05:24:45 32° SE 05:26:34 10° SE
Cosmos 1703 Rocket 3.4 05:22:12 40° NNW 05:23:47 85° W 05:28:13 10° S
STARLINK 1026 4.3 05:25:01 33° SE 05:25:01 33° SE 05:26:51 10° SE
STARLINK 1013 4.3 05:25:14 33° SE 05:25:14 33° SE 05:27:04 10° SE
STARLINK 1009 4.3 05:25:26 33° SE 05:25:26 33° SE 05:27:16 10° SE
STARLINK 1015 4.2 05:25:38 33° SE 05:25:38 33° SE 05:27:30 10° SE
STARLINK 1052 4.2 05:25:45 34° SE 05:25:45 34° SE 05:27:38 10° SE
STARLINK 1016 4.2 05:25:51 33° SE 05:25:51 33° SE 05:27:43 10° SE
STARLINK 1008 4.2 05:26:05 33° SE 05:26:05 33° SE 05:27:56 10° SE
STARLINK 1014 4.2 05:26:18 33° SE 05:26:18 33° SE 05:28:11 10° SE
STARLINK 1025 4.2 05:26:31 34° SE 05:26:31 34° SE 05:28:24 10° SE
STARLINK 1017 4.2 05:26:36 34° SE 05:26:36 34° SE 05:28:29 10° SE
STARLINK 1065 3.5 05:26:10 57° SSE 05:26:10 57° SSE 05:29:08 10° ESE
STARLINK 1023 4.2 05:26:57 34° SE 05:26:57 34° SE 05:28:51 10° SE
Cosmos 2026 Rocket 4.1 05:19:51 10° N 05:26:02 78° E 05:32:15 10° SSE
STARLINK 1007 4.2 05:27:09 34° SE 05:27:09 34° SE 05:29:03 10° SE
STARLINK 1048 4.2 05:27:23 34° SE 05:27:23 34° SE 05:29:17 10° SE
STARLINK 1049 4.1 05:27:35 34° SE 05:27:35 34° SE 05:29:30 10° SE
STARLINK 1051 4.1 05:27:48 35° SE 05:27:48 35° SE 05:29:44 10° SE
STARLINK 1037 4.1 05:28:01 35° SSE 05:28:01 35° SSE 05:29:58 10° SE
STARLINK 1059 4.1 05:28:13 35° SSE 05:28:13 35° SSE 05:30:11 10° SE
STARLINK 1040 4.1 05:28:28 34° SSE 05:28:28 34° SSE 05:30:24 10° SE
STARLINK 1057 4.1 05:28:27 35° SSE 05:28:27 35° SSE 05:30:25 10° SE
STARLINK 1068 4.1 05:28:53 35° SSE 05:28:53 35° SSE 05:30:51 10° SE
STARLINK 1029 4.1 05:29:06 35° SSE 05:29:06 35° SSE 05:31:04 10° SE
STARLINK 1060 4.1 05:29:20 35° SSE 05:29:20 35° SSE 05:31:19 10° SE
STARLINK 1030 4.0 05:29:29 37° SSE 05:29:29 37° SSE 05:31:33 10° SE
STARLINK 1063 3.4 05:29:02 58° S 05:29:02 58° S 05:32:06 10° ESE
STARLINK 1020 4.0 05:29:46 35° SSE 05:29:46 35° SSE 05:31:45 10° SE
STARLINK 1033 4.0 05:30:24 36° SSE 05:30:24 36° SSE 05:32:25 10° SE
STARLINK 1031 4.0 05:30:37 36° SSE 05:30:37 36° SSE 05:32:38 10° SE
Cosmos 1484 Rocket 2.6 05:25:56 10° N 05:29:55 74° WNW 05:33:49 10° SSW
STARLINK 1024 3.9 05:30:47 37° SSE 05:30:47 37° SSE 05:32:53 10° SE
Geosat 4.4 05:25:19 10° S 05:29:59 40° WSW 05:29:59 40° WSW
STARLINK 1035 4.0 05:31:03 37° SSE 05:31:03 37° SSE 05:33:06 10° SE
STARLINK 1032 4.0 05:31:16 36° SSE 05:31:16 36° SSE 05:33:19 10° SE
STARLINK 1011 3.9 05:31:27 38° SSE 05:31:27 38° SSE 05:33:34 10° SE
STARLINK 1036 4.0 05:31:42 37° SSE 05:31:42 37° SSE 05:33:46 10° SE
Cosmos 1954 Rocket 4.0 05:29:25 42° NW 05:31:03 62° WSW 05:36:15 10° S
STARLINK 1047 3.9 05:32:08 37° SSE 05:32:08 37° SSE 05:34:13 10° SE
STARLINK 1064 3.4 05:31:39 58° S 05:31:39 58° S 05:34:50 10° SE
PSLV R/B 3.7 05:29:32 10° N 05:33:38 72° WNW 05:37:44 10° SSW
STARLINK 1041 3.3 05:34:24 58° SSW 05:34:24 58° SSW 05:37:40 10° SE
STARLINK 1038 3.3 05:37:10 56° SSW 05:37:10 56° SSW 05:40:32 10° SE
Cosmos 2263 Rocket 3.0 05:32:35 10° S 05:37:59 52° ESE 05:43:24 10° NE
Cosmos 1420 Rocket 4.4 05:34:33 10° S 05:39:40 63° ESE 05:44:49 10° NNE
STARLINK 1046 3.3 05:39:54 54° SW 05:40:00 54° SSW 05:43:23 10° SE
STARLINK 1039 3.4 05:42:40 51° SW 05:42:52 52° SSW 05:46:15 10° SE
STARLINK 1045 3.4 05:43:36 50° SW 05:43:50 52° SSW 05:47:13 10° SE
Cosmos 1869 Rocket 3.8 05:40:10 10° S 05:44:27 69° E 05:48:48 10° NNE
Cosmos 1634 Rocket 4.0 05:39:00 10° S 05:45:12 84° E 05:51:26 10° N
SL-24 R/B 4.2 05:41:34 10° SSE 05:46:01 76° ENE 05:50:09 10° N
Cosmos 2034 Rocket 4.2 05:40:06 10° SSW 05:46:12 49° WNW 05:52:23 10° N
Cosmos 1741 Rocket 4.0 05:43:11 18° NNW 05:47:10 81° ENE 05:52:24 10° SSE
Cosmos 2227 4.3 05:41:55 10° SSW 05:47:40 79° ESE 05:53:28 10° NNE
Okean 3 4.3 05:44:27 10° N 05:48:33 51° ENE 05:52:38 10° SSE
Cosmos 1627 Rocket 4.4 05:43:55 10° NNW 05:50:06 70° W 05:56:21 10° S
Cosmos 2297 Rocket 3.1 05:51:59 26° NW 05:52:30 27° NW 05:57:16 10° NNE
SJ-12 3.9 05:49:27 10° N 05:53:32 60° WNW 05:57:35 10° SSW
Cosmos 2227 Rocket 3.1 05:55:45 26° NW 05:56:33 27° NW 06:01:20 10° NNE
CZ-4B R/B 3.3 05:52:29 10° NNE 05:58:05 81° ESE 06:03:45 10° SSW
STARLINK 1044 3.7 05:58:28 31° SW 05:58:34 31° SSW 06:01:10 10° SE
GRACE-FO 1 4.5 05:55:21 10° S 05:59:02 79° W 06:02:49 10° N
GRACE-FO 2 4.5 05:55:45 10° S 05:59:27 78° W 06:03:13 10° N
ATLAS CENTAUR R/B 3.2 05:57:30 15° NNW 06:00:01 24° NNE 06:03:28 10° E
CZ-2C R/B 3.9 05:56:40 10° N 05:58:17 17° NNW 05:58:17 17° NNW
FENGYUN 3A 3.5 05:55:43 10° NNE 06:01:07 75° WNW 06:06:29 10° SSW
SKYMED 2 4.4 05:57:54 10° SSW 06:01:40 28° W 06:01:48 28° W
Meteor 1-14 Rocket 4.4 05:56:52 10° S 06:02:48 85° E 06:08:50 10° NNE
Cosmos 1452 Rocket 3.6 06:00:13 10° SSW 06:05:29 80° ESE 06:10:49 10° NNE
Cosmos 1346 Rocket 3.2 06:02:01 10° S 06:05:50 64° E 06:09:42 10° NNE
NOAA 6 4.0 06:00:44 10° NNE 06:05:53 86° WNW 06:11:00 10° SSW
Meteor 1-25 Rocket 4.1 06:00:40 10° SSW 06:06:14 68° WNW 06:11:56 10° N
PAYLOAD B 4.1 06:01:41 10° NNE 06:07:11 70° WNW 06:12:40 10° SSW
Cosmos 1092 Rocket 4.3 06:02:46 10° NNW 06:08:31 41° W 06:14:12 10° SSW
Cosmos 1850 Rocket 4.0 06:04:09 15° NNW 06:08:37 69° WSW 06:13:55 10° SSE
Cosmos 1371 Rocket 4.5 06:07:05 11° WSW 06:11:48 37° NW 06:16:38 10° NNE
Cosmos 1943 3.6 06:11:29 19° NW 06:15:01 42° WSW 06:20:14 10° S
CZ-4C R/B 4.0 06:12:17 19° W 06:15:11 24° WSW 06:21:16 10° SSW
FALCON 9 DEB 4.5 06:15:24 14° SW 06:15:24 14° SW 06:16:45 10° S
H-2A R/B 3.5 06:13:34 10° NNE 06:17:14 54° E 06:20:55 10° S
USA 234 3.3 06:12:01 10° ENE 06:18:30 65° NNW 06:24:18 13° W
CZ-4 R/B 4.3 06:17:06 10° NE 06:19:42 17° E 06:22:17 10° SE
Okean 1-7 3.9 06:20:10 18° NW 06:22:30 28° W 06:26:16 10° SSW
Meteor 1-19 Rocket 4.2 06:17:24 10° NNW 06:22:46 57° W 06:28:12 10° S
Cosmos 2082 Rocket 4.2 06:20:14 10° NNW 06:24:11 19° NNE 06:28:07 10° ENE
Cosmos 405 3.4 06:23:38 10° N 06:27:11 63° ENE 06:30:42 10° SSE
ADEOS Rocket 3.2 06:21:42 10° SSE 06:28:44 86° WSW 06:35:05 10° NNW
STARLINK 1050 4.5 06:27:04 18° W 06:28:47 27° SW 06:31:44 10° SSE
METEOR-M 4.4 06:23:47 10° N 06:28:52 46° WNW 06:33:56 10° SW
CZ-2C R/B 3.9 06:24:58 10° SSE 06:29:42 80° ENE 06:34:30 10° NNW
Cosmos 371 Rocket 4.3 06:29:47 10° S 06:34:27 50° ESE 06:39:10 10° NNE
SMAP 3.2 06:31:33 10° NNE 06:36:14 81° ESE 06:40:53 10° SSW
Okean 1 4.3 06:33:56 14° NW 06:36:28 25° W 06:39:44 10° SW
Meteor 2-4 Rocket 3.7 06:31:40 10° NNW 06:37:12 66° W 06:42:34 10° S
Cosmos 2221 Rocket 4.0 06:36:03 10° NNW 06:40:12 40° W 06:44:19 10° SSW
Helios 1A Rocket 3.4 06:37:39 10° N 06:41:24 37° WNW 06:45:06 10° SW
ALOS 3.0 06:39:52 10° N 06:43:54 29° WNW 06:47:56 10° WSW
ATLAS 5 CENTAUR R/B 3.1 06:42:44 14° WNW 06:45:54 25° NNW 06:50:20 10° NE
CZ-2C R/B 4.1 06:41:53 10° SE 06:46:39 35° ENE 06:51:21 10° N
Cosmos 44 4.2 06:43:33 10° SSW 06:48:07 50° SE 06:52:28 10° NE
Cosmos 2180 Rocket 4.4 06:44:08 10° SSW 06:50:13 69° WNW 06:56:24 10° N
Okean O Rocket 2.3 06:47:41 10° N 06:51:33 31° WNW 06:55:25 10° SW
CORIOLIS 4.3 06:48:45 10° NNE 06:54:14 86° ESE 06:59:38 10° SSW
Cosmos 2266 Rocket 4.0 06:48:01 10° NNW 06:54:18 73° W 07:00:25 10° S
Feng Yun 1-1 Rocket 4.3 06:51:40 10° NNE 06:57:13 84° WNW 07:02:54 10° SSW
IRIDIUM 104 4.3 06:53:28 10° N 06:58:43 82° W 07:03:56 10° S
USA 81 4.1 06:54:18 10° N 06:59:36 89° W 07:04:53 10° S
Cosmos 1331 Rocket 4.2 06:54:43 10° SSW 06:59:51 76° ESE 07:05:03 10° NNE
SAR-Lupe-2 3.6 06:56:42 10° S 07:00:16 63° WSW 07:03:51 10° NNW
Cosmos 1500 3.1 06:57:05 10° SSW 07:00:54 68° WNW 07:04:44 10° N
Meteor 1-13 Rocket 4.3 06:55:54 10° NNW 07:01:18 57° W 07:06:43 10° S
Cosmos 1340 3.5 06:58:12 10° SW 07:01:32 30° WNW 07:04:55 10° N
Cosmos 1536 2.9 07:00:45 10° S 07:04:49 85° ESE 07:08:56 10° NNE
Okean-O 2.7 07:00:55 10° NNE 07:05:23 87° ESE 07:09:50 10° SSW
IRIDIUM 114 4.3 07:02:38 10° N 07:07:50 69° W 07:13:01 10° S
Cosmos 1110 Rocket 4.0 07:04:39 10° SSW 07:09:50 83° WNW 07:15:04 10° NNE
Cosmos 1733 Rocket 3.3 07:10:43 10° SSW 07:14:53 47° WNW 07:19:05 10° N
AQUARIUS 4.4 07:12:09 10° N 07:16:29 48° WNW 07:20:48 10° SW
IRIDIUM 103 4.4 07:11:50 10° N 07:16:58 58° W 07:22:05 10° SSW
